Home   Weather   Nanjing   Past weeks

Flag for China Past Weather in Nanjing, Jiangsu, China — Yesterday and Last 2 Weeks

Now
91 °F

Clear.


Feels Like: 108 °F
Forecast: 84 / 101 °F
Wind: 6 mph from East

Location: Nanjing

Current Time: Jul 27, 2017 at 10:54:54 pm

Latest Report: Jul 27, 2017 at 10:00 pm


Visibility: 5 mi

Pressure: 29.68 "Hg

Humidity: 67%

Dew Point: 79 °F

Location of NanjingLocation

Past Weather in Nanjing — Graph

°F

Nanjing Temperature Yesterday

Maximum temperature yesterday: 102 °F (at 1:00 pm)
Minimum temperature yesterday: 84 °F (at 4:00 am)
Average temperature yesterday: 93 °F

High & Low Weather Summary for the Past Weeks

 TemperatureHumidityPressure
High106 °F (Jul 25, 2:00 pm)94% (Jul 13, 12:00 am)29.86 "Hg (Jul 13, 12:00 am)
Low81 °F (Jul 14, 1:00 am)37% (Jul 24, 11:00 am)29.56 "Hg (Jul 26, 6:00 pm)
Average91 °F67%29.71 "Hg
* Reported Jul 12 9:00 pm — Jul 27 9:00 pm, Nanjing. Weather by CustomWeather, © 2017

Note: Actual official high and low records may vary slightly from our data, if they occured in-between our weather recording intervals... More about our weather records

Advertising

Nanjing Weather History for the Previous 24 Hours

Scroll right to see more
 ConditionsComfort  
Time TempWeatherWind HumidityBarometerVisibility
9:00 pm
Thu, Jul 27
95 °FClear.6 mph53%29.68 "Hg10 mi
8:00 pm97 °FClear.8 mph50%29.65 "Hg10 mi
7:00 pm97 °FPassing clouds.8 mph47%29.62 "HgN/A
6:00 pm100 °FSunny.8 mph40%29.62 "Hg10 mi
5:00 pm102 °FScattered clouds.10 mph42%29.59 "HgN/A
4:00 pm102 °FScattered clouds.6 mph40%29.59 "HgN/A
3:00 pm102 °FPassing clouds.6 mph40%29.62 "HgN/A
2:00 pm106 °FSunny.6 mph40%29.62 "Hg10 mi
1:00 pm104 °FSunny.3 mph40%29.62 "Hg10 mi
12:00 pm102 °FClear.1 mph42%29.65 "Hg6 mi
11:00 am100 °FClear.6 mph47%29.65 "Hg6 mi
10:00 am99 °FClear.6 mph50%29.65 "Hg6 mi
9:00 am95 °FClear.3 mph63%29.65 "Hg5 mi
8:00 am91 °FHaze.6 mph71%29.65 "Hg3 mi
7:00 am90 °FFog.6 mph75%29.65 "Hg2 mi
6:00 am86 °FFog.3 mph89%29.65 "Hg2 mi
5:00 am84 °FFog.3 mph89%29.65 "Hg2 mi
4:00 am86 °FClear.3 mph84%29.62 "Hg4 mi
3:00 am88 °FClear.6 mph79%29.62 "Hg4 mi
2:00 am90 °FClear.6 mph75%29.62 "Hg4 mi
1:00 am90 °FFog.3 mph75%29.65 "Hg3 mi
12:00 am91 °FClear.6 mph71%29.62 "Hg4 mi
11:00 pm
Wed, Jul 26
90 °FClear.3 mph71%29.65 "Hg4 mi
10:00 pm91 °FClear.6 mph67%29.62 "Hg5 mi
Weather by CustomWeather, © 2017

See weather overviewHow to use our weather pages